Weather Roundup
Issued by NWS Springfield, MO

Home | Current Version | Previous Version | Text Only | Print | Product List | Glossary On
Versions: 1 2 3 4 5 6 7 8 9 10 11 12 13 14 15 16 17 18 19 20 21 22 23 24 25 26 27 28 29 30 31 32 33 34 35 36 37 38 39 40 41 42 43 44 45 46 47 48 49 50
000
NZUS99 KSGF 032110
HRRSGF

HOURLY WEATHER
NATIONAL WEATHER SERVICE SPRINGFIELD MO
400 PM CDT MON AUG 03 2015

......SGF CWA......

CITY           SKY/WX    TMP DP  RH WIND       PRES   REMARKS
SPRINGFIELD    MOSUNNY   92  62  36 W7        29.96F HX  92
JOPLIN         MOSUNNY   94  62  34 SW9       29.94F HX  94
WEST PLAINS    MOSUNNY   90  63  40 W7        29.98S HX  91
ROLLA          PTSUNNY   87  69  54 NW9       29.95F HX  91
OSAGE BEACH    PTSUNNY   88  70  55 NE9       29.95S HX  92
BRANSON        PTSUNNY   93  64  38 W5        29.98F HX  95

......SURROUNDING SGF CWA......

CITY           SKY/WX    TMP DP  RH WIND       PRES   REMARKS
CHANUTE        MOSUNNY   93  65  39 S3        29.92F HX  95
PARSONS        MOSUNNY   94  67  41 SW8       29.94F HX  97
COFFEYVILLE    MOSUNNY   95  64  35 SW7       29.92F HX  97
EMPORIA        MOSUNNY   91  67  44 VRB3      29.92F HX  94
GROVE OK       PTSUNNY   93  63  36 SW6       29.96S HX  94
ROGERS AR      PTSUNNY   92  66  42 SW9       29.98F HX  94
SILOAM SPRINGS CLOUDY    90  64  43 S9        29.97F HX  91
HARRISON AR    MOSUNNY   91  65  41 W7        29.98F HX  93
NEAR YELLVILLE PTSUNNY   95  64  36 NE3       29.93F HX  97

......KANSAS AND MISSOURI......

CITY           SKY/WX    TMP DP  RH WIND       PRES   REMARKS
KANSAS CTY INT MOSUNNY   84  69  60 E12       29.93F
DOWNTOWN KC    SUNNY     87  69  54 E10       29.91F HX  91
COLUMBIA       MOSUNNY   88  67  49 VRB3      29.95F HX  91
SEDALIA        MOSUNNY   87  68  52 NE7       29.96F HX  90
ST JOSEPH      MOSUNNY   83  72  69 E10       29.92F
ST LOUIS       PTSUNNY   93  68  43 NW7       29.92F HX  97
SPIRIT OF STL  PTSUNNY   90  68  48 W6        29.91S HX  94
KIRKSVILLE     RAIN      74  66  76 SW6       29.96F
WICHITA        PTSUNNY   91  69  48 S7        29.92F HX  96
TOPEKA         SUNNY     93  71  48 S8        29.89F HX 100
OLATHE         MOSUNNY   92  68  45 CALM      29.92S HX  96

......TENNESSEE......

CITY           SKY/WX    TMP DP  RH WIND       PRES   REMARKS
MEMPHIS        PTSUNNY   96  67  38 W6        29.92F HX 100
NASHVILLE      PTSUNNY   93  63  36 W9        29.91F HX  94

......ARKANSAS.......

CITY           SKY/WX    TMP DP  RH WIND       PRES   REMARKS
FAYETTEVILLE   PTSUNNY   89  68  49 W5        29.98F HX  93
FT SMITH       CLOUDY    92  63  38 N7        29.92F HX  93
LITTLE ROCK    CLOUDY    96  63  33 SE7       29.92F HX  97

......OKLAHOMA.......

CITY           SKY/WX    TMP DP  RH WIND       PRES   REMARKS
TULSA          CLOUDY    93  66  40 SE9       29.91F HX  96
PONCA CITY     PTSUNNY   92  68  45 SE9       29.91F HX  96
MCALESTER      MOSUNNY   94  59  31 CALM      29.93F HX  93
OKLAHOMA CITY  PTSUNNY   83  68  60 S7        29.94F

......IOWA............

CITY           SKY/WX    TMP DP  RH WIND       PRES   REMARKS
DES MOINES     MOSUNNY   83  56  39 VRB3      29.94F
QUAD CITIES    SUNNY     82  53  36 VRB6      29.91S

......ILLINOIS........

CITY           SKY/WX    TMP DP  RH WIND       PRES   REMARKS
QUINCY         PTSUNNY   83  63  50 N7        29.92F
CHICAGO        MOSUNNY   82  47  29 W15       29.85S



USA.gov is the U.S. government's official web portal to all federal, state and local government web resources and services.